Lapse_Rate
7.4 7.0 6.8 6.4 6.2 6.1 6.1 6.0 6.1 6.1 6.0 6.2 6.0 5.9 5.8 5.8 5.8 5.8 5.8 5.6 5.6 5.6 5.6 5.8 6.0 6.1 6.3 6.1 6.2 5.4 5.5 5.8 5.7 5.5 5.4 5.4 5.0 5.1 5.1 4.9 5.1 5.0 5.0
7.4 7.1 7.0 6.9 6.5 6.3 6.3 6.2 6.1 6.1 6.1 6.1 6.0 6.1 6.1 5.9 5.6 5.6 5.6 5.8 5.9 6.2 6.2 6.4 6.8 6.8 6.6 6.2 6.1 5.8 5.5 5.9 5.6 5.5 5.3 5.4 5.2 5.3 5.0 5.0 5.1 4.9 4.8
7.4 7.3 7.2 7.1 6.8 6.7 6.4 6.3 6.2 6.2 6.1 6.1 6.0 6.0 6.0 5.9 5.8 5.8 5.7 5.4 5.6 5.7 5.9 6.1 6.1 6.3 6.3 6.1 6.0 6.0 5.5 5.8 5.6 5.3 5.3 5.2 5.2 5.1 5.1 4.8 4.9 4.8 4.5
7.8 7.4 7.3 7.2 7.0 6.7 6.7 6.5 6.3 6.1 5.9 5.9 6.0 5.9 5.8 5.7 5.6 5.5 5.5 5.5 5.4 5.3 5.6 5.8 6.0 6.2 5.9 5.8 5.9 5.8 5.8 5.8 5.7 5.4 5.0 5.2 4.9 4.9 4.9 4.6 4.7 4.9 4.5
7.8 7.6 7.4 7.3 7.2 7.0 6.8 6.6 6.4 6.2 6.0 5.8 5.9 6.0 5.8 5.4 5.2 5.3 5.3 5.4 5.3 5.4 5.4 5.4 5.6 5.6 5.7 5.8 6.0 5.9 6.0 5.9 5.8 5.5 5.0 5.3 4.9 5.1 4.7 4.4 4.5 4.7 4.5
7.9 7.7 7.6 7.3 7.2 7.1 7.0 6.7 6.5 6.2 6.1 6.0 5.9 5.8 5.7 5.3 5.0 4.9 5.0 5.3 5.5 5.3 5.4 5.3 5.4 5.6 5.7 5.6 5.6 5.7 5.8 5.8 5.8 5.5 5.5 5.3 5.1 4.9 4.8 4.6 4.7 4.7 4.4
7.9 7.8 7.7 7.6 7.4 7.2 6.9 6.9 6.7 6.5 6.2 6.1 6.0 6.0 5.9 5.4 4.9 4.9 4.8 5.1 5.3 5.4 5.4 5.5 5.2 5.6 5.4 5.3 5.3 5.4 5.5 5.5 5.4 5.4 5.4 5.3 5.2 5.1 4.8 4.8 5.0 4.5 4.6
7.8 7.6 7.7 7.5 7.2 7.2 7.0 6.8 6.7 6.6 6.4 6.4 6.0 5.9 6.0 5.9 5.2 4.9 4.8 5.0 5.0 5.2 5.5 5.4 5.4 5.4 5.5 5.4 5.3 5.2 5.2 5.2 5.3 5.3 5.3 5.3 5.3 5.2 5.0 5.0 4.7 4.7 5.0
7.6 7.6 7.8 7.8 7.5 7.5 7.4 7.0 6.8 6.5 6.6 6.5 6.3 6.1 6.0 6.1 5.8 5.2 4.7 4.5 5.0 5.3 5.3 5.4 5.3 5.5 5.5 5.4 5.4 5.4 5.3 5.3 5.2 5.2 5.2 5.3 5.2 5.2 5.2 5.2 5.2 5.1 5.1
7.6 7.7 7.8 7.9 7.6 7.6 7.6 7.4 6.7 6.9 6.9 6.4 6.5 6.3 6.1 6.1 6.0 5.8 5.0 4.8 4.8 5.0 5.2 5.0 5.2 5.2 5.2 5.3 5.4 5.4 5.3 5.4 5.3 5.2 5.2 5.3 5.3 5.3 5.3 5.4 5.3 5.3 5.2
7.4 7.6 7.9 8.0 7.6 7.5 7.5 7.7 7.1 6.8 7.0 6.4 6.6 6.5 6.4 6.2 6.3 6.2 5.8 5.0 4.8 4.9 4.9 5.0 5.1 5.1 5.1 5.1 5.2 5.3 5.7 5.5 5.4 5.5 5.5 5.4 5.4 5.7 5.7 5.7 5.3 5.4 5.3
7.2 7.5 7.5 7.5 7.3 8.0 7.2 7.3 7.2 7.1 6.7 6.5 6.3 6.4 6.6 6.5 6.5 6.5 6.2 5.7 5.1 5.1 4.8 4.9 5.1 5.2 5.3 5.4 5.5 5.6 5.7 5.8 6.0 6.1 6.2 6.1 6.3 6.2 6.1 6.1 6.0 5.9 5.5
6.9 7.4 7.3 6.9 6.8 7.0 7.6 7.7 7.4 7.3 6.7 6.6 6.2 6.4 6.5 6.4 6.6 6.6 6.3 6.1 5.5 5.0 5.2 5.0 5.2 5.0 5.3 5.1 5.1 5.1 5.3 5.2 5.2 5.6 5.8 5.9 6.2 6.5 6.6 6.6 6.5 6.3 5.8
6.4 6.4 5.9 6.5 6.7 6.8 7.0 7.7 7.3 7.5 6.7 6.6 6.3 6.3 6.5 6.0 6.0 6.0 6.2 6.0 5.8 5.7 5.0 5.2 5.2 5.0 5.1 5.3 5.2 5.2 5.3 5.3 5.4 5.5 5.5 5.7 5.9 6.3 6.3 6.2 5.8 5.9 6.2
5.7 6.2 6.6 6.3 6.6 6.7 6.6 7.1 6.9 7.4 6.8 6.3 6.4 6.4 6.7 6.3 6.1 6.4 6.4 6.1 5.9 5.6 5.5 5.4 5.5 5.5 5.3 5.4 5.6 5.7 5.6 5.5 5.7 5.8 5.6 5.5 5.4 5.2 5.5 5.7 5.5 5.4 5.7
6.4 6.2 6.1 6.1 6.2 6.2 6.4 6.5 6.1 6.5 6.8 6.5 6.5 6.7 6.8 6.5 6.0 6.0 6.1 6.0 6.0 5.8 5.6 5.7 5.7 5.5 5.6 5.8 5.7 5.8 5.7 5.8 5.8 5.7 5.8 5.5 5.3 5.4 5.0 5.0 5.0 5.2 5.5
6.1 6.0 6.3 6.4 6.1 5.9 6.3 6.5 6.3 6.3 6.5 6.6 6.8 6.8 6.6 6.3 5.9 5.6 5.8 5.8 5.9 5.8 5.7 5.9 5.9 5.9 5.9 5.4 5.7 5.5 5.6 5.4 5.6 5.5 5.5 5.4 5.1 5.4 5.3 5.2 5.0 4.7 4.9
6.0 5.9 6.0 5.8 5.8 6.1 5.7 6.2 6.2 5.6 6.2 6.5 6.7 6.8 6.7 6.5 6.0 5.8 5.7 5.8 5.8 5.9 5.9 6.0 5.9 5.9 5.8 6.0 6.2 5.8 5.6 5.7 5.5 5.2 5.4 5.4 5.1 5.3 5.6 5.4 5.5 5.1 4.8
5.4 5.5 5.7 5.6 5.6 5.4 5.3 5.5 5.2 5.2 5.3 5.3 5.4 6.2 6.6 6.1 5.9 5.7 5.7 5.7 5.6 5.6 5.8 5.8 5.8 5.7 5.6 5.5 5.5 5.2 5.0 5.2 5.3 5.2 5.3 5.4 4.8 4.6 5.2 5.2 5.3 5.3 4.9
4.7 5.0 5.1 5.0 5.1 4.9 4.8 4.8 5.1 5.4 5.7 5.3 5.5 5.5 5.8 5.9 5.2 5.0 5.2 5.6 5.6 5.1 5.3 5.7 5.5 5.4 5.3 5.3 5.2 5.1 5.0 4.9 5.0 5.0 5.0 5.0 5.0 5.3 5.5 5.6 5.6 5.6 5.6
4.6 4.3 4.4 4.3 4.7 4.7 5.0 5.4 5.6 5.8 5.8 5.9 5.5 5.7 5.9 5.5 5.2 5.4 5.2 4.8 5.1 5.1 5.2 5.0 5.0 5.1 5.2 5.0 5.2 5.3 5.3 5.3 5.6 5.7 5.7 5.7 5.7 5.8 5.8 6.0 5.8 6.0 5.7
5.0 5.1 4.9 4.7 4.7 5.0 4.9 5.2 5.4 5.7 5.9 5.7 5.7 5.4 5.5 5.3 5.4 5.4 5.2 5.0 4.9 5.2 5.1 5.1 5.2 5.4 5.5 5.5 5.4 5.8 5.9 5.8 5.6 5.6 5.7 5.9 6.0 5.8 5.6 5.7 5.8 6.0 6.1
5.3 5.3 5.5 5.4 5.0 4.7 5.2 5.2 5.2 5.3 5.0 5.3 5.2 5.4 5.4 5.5 5.2 5.0 5.0 5.1 5.2 5.2 5.4 5.5 5.5 5.5 5.5 5.5 5.5 5.4 5.4 5.4 5.3 5.4 5.5 5.7 5.9 6.0 5.9 5.8 5.8 5.8 5.9
6.5 6.2 6.3 6.4 6.4 5.7 5.3 5.5 5.7 5.5 5.6 5.7 5.6 5.7 5.5 5.5 5.2 5.3 5.1 5.3 5.3 5.3 5.4 5.4 5.5 5.5 5.5 5.6 5.5 5.4 5.5 5.5 5.6 5.7 5.9 5.9 5.8 6.0 5.8 5.9 6.0 6.0 6.1
6.1 6.0 6.2 6.4 6.2 6.2 6.1 5.8 5.9 5.8 5.8 5.7 5.8 5.6 5.2 5.6 5.3 5.6 5.6 5.6 5.6 5.5 5.4 5.3 5.3 5.7 6.1 6.2 6.1 6.1 6.2 6.2 6.2 6.2 6.2 6.3 6.2 6.2 6.1 6.0 6.0 6.0 5.9
6.1 6.0 6.1 6.1 6.0 5.9 5.8 5.8 5.9 6.0 6.0 5.8 5.6 5.5 5.6 5.5 5.6 5.7 5.7 5.7 5.7 5.5 5.6 5.7 6.0 6.2 6.1 6.3 6.1 6.1 6.2 6.1 6.2 6.2 6.2 6.1 6.1 6.0 6.0 6.0 6.0 6.0 6.0
Wind_Speed
8 7 6 6 8 6 6 5 5 2 3 3 2 3 1 2 4 3 4 3 5 4 4 5 6 5 6 3 5 4 5 5 6 3 2 3 3 6 5 10 12 11 11
7 6 8 8 8 6 6 5 5 4 4 4 3 2 3 6 2 4 6 3 4 3 3 4 6 3 2 5 4 6 5 4 7 7 3 1 2 4 4 5 7 9 12
9 8 7 9 7 6 7 6 5 5 5 6 4 4 4 3 3 3 5 5 4 4 3 2 4 3 4 2 3 4 4 4 8 6 3 2 2 3 4 4 3 8 11
10 9 7 9 8 8 7 6 6 6 6 6 5 4 4 4 4 4 3 5 5 4 2 3 3 2 2 1 2 4 5 6 7 7 4 3 2 1 2 6 5 6 6
11 10 8 8 8 8 8 7 7 7 7 5 3 3 5 5 4 4 3 4 5 4 2 5 6 6 8 8 2 4 7 6 6 7 5 3 4 4 7 7 7 7 7
10 9 8 9 7 8 7 7 6 4 4 4 5 5 5 7 8 6 3 6 4 4 4 3 5 5 6 6 6 11 3 7 7 6 6 8 9 8 8 5 5 7 6
11 11 11 11 11 9 7 7 6 5 5 4 4 5 6 5 3 1 2 5 5 4 3 3 6 6 4 6 4 4 6 7 2 7 8 9 8 10 10 9 9 10 5
10 11 11 12 11 10 9 8 5 3 2 3 5 4 5 2 4 3 6 4 7 4 4 4 5 3 4 3 6 5 4 5 6 6 7 8 9 11 10 10 4 2 5
12 12 12 12 11 8 9 7 7 3 3 3 2 2 5 5 6 6 3 5 7 5 4 2 4 2 6 5 6 5 5 4 8 7 5 5 9 19 13 7 5 7 4
14 13 12 11 12 11 9 7 6 5 4 3 1 4 1 5 8 7 5 5 7 5 4 4 2 3 6 2 4 1 4 5 5 6 4 4 7 11 18 12 9 9 9
13 12 12 11 10 8 8 6 7 6 4 1 2 1 3 5 5 8 6 5 5 5 4 5 5 9 7 6 3 6 1 4 3 5 7 7 8 8 8 14 12 9 7
11 11 11 10 8 8 8 8 7 5 4 4 4 4 5 3 5 10 9 8 8 6 6 6 4 10 8 6 5 3 1 4 5 7 6 6 8 9 9 11 13 13 9
12 8 8 7 6 7 8 6 4 5 5 4 3 5 4 4 4 7 12 9 8 7 6 3 7 4 4 5 8 3 4 6 7 7 8 7 7 6 4 4 4 2 6
7 9 5 7 9 9 7 8 5 3 1 1 5 6 2 4 2 4 6 7 10 7 9 9 6 4 9 7 6 6 7 7 7 8 8 8 6 5 6 6 7 7 8
6 6 8 6 7 6 4 3 4 3 4 3 3 3 4 3 3 7 5 4 5 6 7 7 7 9 9 9 9 8 8 8 9 9 9 8 6 4 6 5 7 8 9
5 7 7 8 7 8 7 6 7 11 8 7 3 3 4 11 8 7 5 4 5 5 1 3 5 7 7 6 6 10 10 10 10 11 8 3 3 3 4 4 10 10 10
10 5 5 5 5 5 2 3 8 3 2 4 6 6 5 3 2 2 0 5 4 6 4 6 7 7 6 5 6 6 5 6 3 3 3 5 4 3 4 5 6 8 9
4 3 6 3 3 5 5 3 3 8 9 9 10 12 11 8 7 6 5 4 5 5 4 5 5 5 4 4 4 5 6 3 2 2 3 4 4 4 4 4 3 4 6
8 8 7 7 5 4 4 3 4 5 4 4 9 4 5 8 5 5 5 6 6 6 1 2 2 3 3 3 3 3 3 3 2 3 3 5 6 6 7 7 7 7 8
7 15 12 8 8 7 6 4 6 7 5 4 7 6 6 5 7 7 7 6 4 6 7 3 1 3 4 3 3 3 2 3 4 5 6 6 6 7 9 10 10 11 10
3 5 10 8 10 10 12 11 7 3 3 4 5 6 4 4 7 3 2 3 8 9 8 3 5 5 5 2 3 3 3 4 5 6 6 7 7 7 8 9 9 10 9
6 7 9 11 9 6 5 6 4 4 4 7 5 4 7 4 6 6 7 7 6 5 7 7 6 9 8 8 9 9 9 9 8 5 4 6 7 7 8 8 8 9 10
5 7 5 5 6 3 4 6 2 8 9 10 10 7 5 7 8 8 9 10 8 10 10 10 10 9 8 9 12 9 9 8 7 7 7 7 6 5 5 6 7 8 8
5 4 6 7 5 6 10 9 8 13 8 7 6 8 8 8 9 8 6 8 7 6 6 6 6 10 8 10 12 12 12 11 11 11 9 7 7 7 6 6 6 8 8
6 6 6 6 4 6 8 8 9 8 9 9 9 8 6 7 6 7 7 6 6 6 6 7 7 7 8 12 13 12 12 14 11 15 12 6 8 8 7 6 8 8 7
7 7 7 7 6 8 8 8 8 8 8 8 7 7 6 6 8 6 5 7 7 5 4 4 7 13 9 12 12 9 13 14 13 18 16 8 7 7 7 9 10 7 8
Wind_Direction
196 161 166 188 186 170 198 183 194 204 227 232 214 287 324 22 282 244 258 232 221 258 271 267 263 241 259 229 237 210 210 203 137 102 115 124 124 142 148 139 158 131 112
178 184 170 171 183 184 197 179 180 197 199 214 217 206 257 229 278 279 262 297 264 262 291 264 285 301 294 265 243 200 195 184 140 138 123 129 110 162 143 162 186 145 121
180 194 182 157 184 177 183 186 178 196 211 216 209 203 226 256 266 256 302 282 260 248 257 289 290 282 282 334 274 199 176 144 140 147 126 107 78 178 181 169 63 115 113
163 200 176 170 173 185 180 179 190 217 226 232 233 242 255 257 273 247 265 268 269 233 266 267 275 354 313 20 344 160 150 132 136 137 116 125 122 142 180 166 167 153 152
165 211 173 188 176 183 176 185 202 214 229 242 236 246 264 242 260 199 242 254 248 246 201 258 64 53 47 45 4 158 148 153 153 155 150 131 150 172 190 187 183 180 177
174 201 179 180 175 184 182 197 211 201 236 239 254 247 256 278 47 53 353 297 259 265 235 230 136 131 93 64 57 58 115 164 165 171 173 179 183 186 192 187 172 177 180
184 190 183 178 179 176 184 199 207 213 238 220 263 264 276 270 126 120 321 300 282 249 262 242 262 101 195 137 103 108 85 59 145 179 189 189 180 191 185 184 204 210 196
185 189 181 183 182 182 185 191 218 239 255 239 248 263 257 182 169 249 281 290 291 254 270 272 284 140 45 342 174 149 161 177 167 188 200 198 204 189 193 195 195 182 213
191 184 185 187 182 180 190 181 194 215 225 259 280 279 243 215 175 226 249 277 278 257 235 259 305 267 98 11 294 155 155 159 127 91 81 75 191 177 183 171 190 196 215
192 185 187 191 186 188 188 172 161 162 199 243 253 267 238 260 154 204 219 251 277 247 214 188 196 64 153 167 273 183 225 189 184 171 172 146 160 181 188 204 198 201 215
183 180 182 183 189 186 183 154 172 180 136 181 264 290 242 254 176 180 229 254 285 291 256 203 200 168 186 197 255 301 340 303 132 197 196 189 189 182 196 218 230 226 238
174 174 180 179 190 161 173 179 182 164 148 177 253 246 238 231 213 181 200 235 285 301 307 307 111 155 174 190 224 180 320 285 231 214 217 201 188 190 202 202 223 230 229
167 164 161 156 162 159 159 135 163 179 253 195 242 254 256 210 201 185 190 208 246 265 264 51 32 167 165 204 243 251 251 245 247 243 241 233 219 229 219 184 160 231 283
131 106 138 158 169 173 172 162 210 230 246 248 264 259 264 219 214 184 208 216 233 247 246 255 238 210 220 246 201 209 232 246 244 245 238 239 225 188 195 193 215 210 227
148 129 183 175 185 168 210 161 183 76 59 309 286 302 319 284 15 68 38 335 333 346 331 250 232 231 237 230 234 217 214 230 235 242 252 248 251 231 201 194 222 224 227
182 181 189 180 193 185 176 147 70 94 98 103 96 18 53 86 96 80 45 3 1 10 289 248 260 276 275 262 245 234 230 220 225 238 233 245 345 312 304 263 227 227 237
222 186 187 204 187 189 160 167 148 161 223 216 204 201 208 296 125 131 337 297 255 163 225 222 229 238 240 256 276 270 253 277 289 163 165 199 206 228 257 268 283 254 237
190 184 181 214 170 149 187 194 227 173 193 195 215 223 202 203 205 217 219 249 222 209 233 271 271 258 251 249 249 255 266 247 189 251 223 229 238 251 247 252 276 294 304
30 20 10 3 358 25 356 324 265 225 213 255 178 165 193 201 185 180 210 259 285 306 248 302 282 286 278 276 286 288 278 247 204 206 220 231 232 230 248 257 264 251 252
8 5 9 350 328 324 322 258 262 290 286 100 101 144 180 175 215 211 214 231 306 329 334 143 251 298 295 292 289 285 267 262 260 252 246 236 233 232 245 249 244 250 254
187 222 226 228 240 241 228 233 235 259 305 59 77 69 89 309 343 57 119 43 17 43 46 23 360 356 304 272 259 279 269 254 253 258 253 247 233 239 234 244 249 250 249
285 245 215 218 242 285 349 316 295 315 29 66 124 119 38 309 60 52 46 50 46 23 23 360 3 26 26 32 33 23 22 24 10 337 279 251 228 230 238 243 241 245 252
299 302 280 256 262 322 270 248 340 21 15 34 75 76 68 64 50 50 47 47 37 28 28 28 26 20 16 15 28 25 21 2 347 352 358 348 344 308 272 261 249 259 252
6 352 359 9 32 326 55 61 76 91 84 87 90 74 67 64 57 51 56 52 43 57 40 52 44 41 33 34 35 39 27 1 354 354 345 340 334 340 332 307 281 276 275
45 58 63 55 55 72 88 83 75 77 70 67 70 72 81 77 70 71 54 74 67 68 57 57 59 50 51 48 38 30 13 4 2 344 332 348 349 352 349 343 341 325 330
98 75 69 74 74 76 76 78 82 86 87 91 90 91 82 78 81 77 68 73 76 49 51 55 44 73 32 35 27 25 4 354 348 338 327 332 344 340 349 340 345 342 337